Погода в Ватикане

Ватикан     41°54′07″N   12°27′20″E
темп.,
°C
ветер,
м/с
пор.,
м/с
влажн.,
%
обл.,
%
осадки,
мм/ч
давл.,
гПа
погр.,
м
20 апреля, вт
вт2023:00+7ссв11905 0.2 101610
02:00+6ссв22945 0.2 101623
05:00+5ссв22955 0.0 101642
08:00+7ссв23896 0.0 1017137
11:00+14ссз12575 0.0 1017836
14:00+16зюз334993 0.4 10161790
17:00+16зюз445255 0.4 10151501
20:00+10зюз247617 0.7 1017113
21 апреля, ср
ср2123:00+8с00810 0.0 101910
02:00+7ссв11871 0.0 101911
05:00+6ссв2290100 0.0 101918
08:00+9св128198 0.0 1020119
11:00+15юв1256100 0.0 1020901
14:00+16юз2345100 0.0 10191578
17:00+17ююз344830 0.0 10181540
20:00+11зюз2470100 0.0 101894
22 апреля, чт
чт2223:00+10сз1180100 0.0 102016
02:00+10св2379100 0.0 101991
05:00+9ссв3692100 0.6 1018172
08:00+10ссв3489100 0.6 1018179
11:00+12ссв2382100 0.0 1018212
14:00+13вюв2272100 0.0 1018437
17:00+14всв2468100 0.0 1017410
20:00+13юз1177100 0.0 101717
23 апреля, пт
пт2323:00+12сз1192100 0.0 101819
02:00+11ссв1290100 0.0 101743
05:00+9ссв2290100 0.0 101721
08:00+11ссв238225 0.0 1017153
11:00+17с2259100 0.0 1017765
14:00+20ссз2249100 0.0 10151128
17:00+21сз2447100 0.1 10131650
20:00+15св1275100 0.1 101434
24 апреля, сб
сб2423:00+12ссв3578100 0.0 1016100
02:00+11с2479100 0.0 1016101
05:00+9с358512 0.0 1016108
08:00+11с36775 0.0 1017196
11:00+19ссв45470 0.0 10171233
14:00+22ссв23380 0.0 10161947
17:00+22сз13322 0.0 10152087
20:00+15юв12690 0.0 101642